Regional Weather Roundup
Issued by NWS

Home | Current Version | Previous Version | Text Only | Print | Product List | Glossary Off
Versions: 1 2 3 4 5 6 7 8 9 10 11 12 13 14 15 16 17 18 19 20 21 22 23 24 25 26 27 28 29 30 31 32 33 34 35 36 37 38 39 40 41 42 43 44 45 46 47 48 49 50

000
ASUS45 KBOI 222310
RWRID
WEATHER ROUNDUP FOR IDAHO
NATIONAL WEATHER SERVICE BOISE ID
500 PM MDT TUE JUL 22 2014

NOTE: "FAIR" INDICATES FEW OR NO CLOUDS BELOW 12000 FEET
WITH NO SIGNIFICANT WEATHER AND/OR OBSTRUCTIONS TO VISIBILITY

IDZ012-014-230000-
SOUTHWEST IDAHO


CITY           SKY/WX    TMP DP  RH WIND       PRES   REMARKS
BOISE          CLOUDY    92  46  20 NW9       30.06F
CALDWELL       CLOUDY    91  48  22 NE8       30.07F
MOUNTAIN HOME  PTSUNNY   92  45  19 W7        30.05F
$$

IDZ016-017-230000-
SOUTHCENTRAL IDAHO


CITY           SKY/WX    TMP DP  RH WIND       PRES   REMARKS
BURLEY         SUNNY     90  48  23 NE9       30.09F
JEROME         MOSUNNY   93  49  22 VRB5      30.09F HX  90
TWIN FALLS     SUNNY     95  46  18 N10       30.09F HX  91
$$

IDZ019>023-230000-
SOUTHEAST IDAHO


CITY           SKY/WX    TMP DP  RH WIND       PRES   REMARKS
IDAHO FALLS    MOSUNNY   89  47  23 W8        30.20F
POCATELLO      MOSUNNY   91  47  21 NW12      30.17F
REXBURG        SUNNY     87  43  21 VRB7      30.22F
$$

IDZ006-010-011-018-031-032-230000-
CENTRAL IDAHO MOUNTAINS


CITY           SKY/WX    TMP DP  RH WIND       PRES   REMARKS
MCCALL         CLOUDY    78  42  27 S12       30.23S
HAILEY         PTSUNNY   82  46  28 SE7       30.24F
STANLEY          N/A     77  37  23 SW8       30.33S
SALMON         PTSUNNY   90  46  22 S17G24    30.05F
CHALLIS        PTSUNNY   88  31  13 SW6G24    30.17F
$$

IDZ002-004-006-007-026-230000-
NORTHERN IDAHO


CITY           SKY/WX    TMP DP  RH WIND       PRES   REMARKS
LEWISTON       MOSUNNY   88  53  30 CALM      30.02F
LOWELL           N/A     99  50  19 CALM      29.95S HX  96
COEUR D`ALENE  CLOUDY    70  57  64 CALM      30.15S
MULLAN PASS    TSTM      56  54  93 VRB6G22   30.29F FOG
$$


USA.gov is the U.S. government's official web portal to all federal, state and local government web resources and services.